Starlink 4040

operational
NORAD ID: 53151 Int'l Des: 2022-083 Owner: SPXS Country: US Constellation: starlink
LEOCIRCULAR

Über Starlink 4040

Beschreibung wird geladen...

Live-Position

3D-Globus wird geladen...

Nächste Überflüge

Höhenverlauf

Altitude vs Time

uPlot chart will show altitude changes over time

Zweizeiliger Elementsatz

1 53151U 22083V 25353.78270256 -.00000860 00000-0 -35957-4 0 9994
2 53151 53.2176 162.8338 0001560 81.5113 278.6056 15.08832796189295
Epoch: 19. Dez. 2025 • Age: 18 hours

Aktueller Status

Höhe 541.4 km
Geschwindigkeit 7.60 km/s
Subsatellitenpunkt 34.51°N, 86.13°W
Startdatum 17. Juli 2022
Alter 3.4 years
Typ internet

Technische Details

Klassifizierung Payload
Masse 297.00 kg
Trockenmasse 275.00 kg
Gesamtmasse 297.00 kg
Länge 0.20 m
Durchmesser 2.80 m
Spannweite 9.00 m
Form Box + pan
Hersteller SPXS
Bus-Typ Starlink
Phasenstatus In Orbit
Besitzer/Staat SPXS/US

Große Konstellationen

Loading constellations...